Terminal Aerodrome Forecast
Issued by NWS Grand Forks, ND

Home | Current Version | Previous Version | Graphics & Text | Print | Product List | Glossary On
Versions: 1 2 3 4 5 6 7 8 9 10 11 12 13 14 15 16 17 18
000
FTUS43 KFGF 052053 AAB
TAFGFK
TAF AMD
KGFK 052053Z 0521/0618 32012KT P6SM BKN015 OVC040
     FM052300 35012KT P6SM SCT025 BKN050
     FM060200 35008KT P6SM BKN060=

USA.gov is the U.S. government's official web portal to all federal, state and local government web resources and services.